Date String (YYYY-MM-DD hh:mm:ss) UTC,Instrument flags,Ambient pressure (hPa),Sample flow (lpm),Bypass flow (lpm),Sample temperature (°C),Ambient temperature (°C),ASC tube jacket temperature (°C),LED temperature (°C),Box temperature (°C),Sample RH (%),Span deviation,Mass concentration (μg/m³),Mass concentration (μg/m³),Mass concentration (μg/m³)
DateTimeUTC,F1_M11,P_M11,Q1_M11,Q2_M11,T1_M11,T2_M11,T3_M11,T4_M11,T5_M11,U1_M11,ZSPAN_M11,X0_M11,X2_M11,X1_M11
2022-12-22 07:00:00,,0824.7,5.01,0.00,20.9,18.7,00.0,30.0,21.9,03.3,0002.1,0009.94,0004.78,0003.99
2022-12-22 07:01:00,,0824.6,4.97,0.00,20.9,19.7,00.0,29.9,22.2,03.3,0001.5,0009.43,0004.75,0003.99
2022-12-22 07:02:00,,0824.2,5.00,0.00,21.0,20.6,00.0,29.9,22.5,03.3,0001.4,0009.76,0004.77,0004.00
2022-12-22 07:03:00,,0824.3,5.03,0.00,21.1,21.3,00.0,29.8,22.7,03.2,0001.3,0009.88,0004.77,0004.00
2022-12-22 07:04:00,,0824.8,4.99,0.00,21.2,21.8,00.0,29.9,22.9,03.2,0001.3,0009.80,0004.77,0004.00
2022-12-22 07:05:00,,0824.9,4.98,0.00,21.3,22.0,00.0,29.9,23.0,03.2,0001.4,0010.12,0004.78,0004.01
2022-12-22 07:06:00,,0824.7,5.03,0.00,21.3,20.8,00.0,30.0,22.7,03.2,0001.7,0010.65,0004.84,0004.01
2022-12-22 07:07:00,,0824.4,5.02,0.00,21.0,19.3,00.0,30.0,22.2,03.2,0002.1,0010.71,0004.84,0004.01
2022-12-22 07:08:00,,0824.7,4.99,0.00,20.9,18.9,00.0,29.9,21.9,03.3,0002.0,0010.60,0004.86,0004.01
2022-12-22 07:09:00,,0825.0,4.98,0.00,20.9,19.8,00.0,29.8,22.2,03.3,0002.5,0010.57,0004.95,0004.03
2022-12-22 07:10:00,,0825.1,5.03,0.00,21.0,20.6,00.0,29.8,22.4,03.3,0002.4,0010.53,0004.95,0004.03
2022-12-22 07:11:00,,0824.9,4.96,0.00,21.1,21.2,00.0,29.8,22.6,03.3,0002.8,0010.60,0004.97,0004.04
2022-12-22 07:12:00,,0824.7,5.03,0.00,21.2,21.6,00.0,29.8,22.8,03.2,0003.4,0010.77,0005.01,0004.04
2022-12-22 07:13:00,,0824.3,4.97,0.00,21.3,21.9,00.0,29.8,23.0,03.2,0003.7,0010.48,0004.98,0004.04
2022-12-22 07:14:00,,0824.2,5.03,0.00,21.4,22.1,00.0,29.9,23.1,03.2,0003.4,0010.21,0005.00,0004.03
2022-12-22 07:15:00,,0824.4,4.96,0.00,21.4,21.6,00.0,29.9,23.0,03.2,0003.2,0010.49,0005.03,0004.04
2022-12-22 07:16:00,,0824.6,5.04,0.00,21.2,20.1,00.0,30.0,22.5,03.2,0002.8,0010.28,0005.07,0004.04
2022-12-22 07:17:00,,0824.8,4.99,0.00,21.0,18.7,00.0,30.0,22.0,03.3,0002.3,0009.94,0005.06,0004.05
2022-12-22 07:18:00,,0824.8,4.96,0.00,20.9,19.1,00.0,29.9,22.0,03.3,0002.4,0009.80,0005.02,0004.06
2022-12-22 07:19:00,,0824.8,5.03,0.00,21.0,20.1,00.0,29.8,22.3,03.3,0002.5,0009.86,0005.03,0004.07
2022-12-22 07:20:00,,0824.7,4.99,0.00,21.0,20.8,00.0,29.8,22.5,03.3,0002.2,0009.73,0004.97,0004.05
2022-12-22 07:21:00,,0824.3,5.00,0.00,21.1,21.3,00.0,29.8,22.7,03.3,0001.7,0009.81,0004.99,0004.06
2022-12-22 07:22:00,,0824.2,4.97,0.00,21.2,21.7,00.0,29.8,22.9,03.2,0001.0,0009.69,0004.98,0004.07
2022-12-22 07:23:00,,0824.4,5.04,0.00,21.3,22.0,00.0,29.8,23.0,03.2,0000.2,0009.57,0004.96,0004.07
2022-12-22 07:24:00,,0824.7,4.97,0.00,21.4,22.2,00.0,29.9,23.1,03.2,-000.1,0009.64,0004.99,0004.09
2022-12-22 07:25:00,,0824.8,5.03,0.00,21.4,21.3,00.0,30.0,22.9,03.2,-000.4,0009.40,0004.97,0004.11
2022-12-22 07:26:00,,0824.8,4.97,0.00,21.2,19.9,00.0,30.0,22.5,03.2,-000.6,0009.11,0004.97,0004.13
2022-12-22 07:27:00,,0824.7,4.97,0.00,21.0,18.7,00.0,30.0,22.0,03.3,-000.6,0009.10,0004.95,0004.16
2022-12-22 07:28:00,,0824.9,5.03,0.00,20.9,19.0,00.0,29.9,22.0,03.3,-000.7,0009.42,0004.96,0004.18
2022-12-22 07:29:00,,0824.9,5.01,0.00,20.9,20.0,00.0,29.8,22.3,03.3,-000.9,0009.46,0005.00,0004.20
2022-12-22 07:30:00,,0824.7,4.96,0.00,21.0,20.8,00.0,29.8,22.5,03.3,-000.8,0009.31,0004.97,0004.23
2022-12-22 07:31:00,,0824.6,5.03,0.00,21.1,21.3,00.0,29.8,22.7,03.2,-000.9,0009.42,0005.03,0004.26
2022-12-22 07:32:00,,0824.7,4.97,0.00,21.2,21.7,00.0,29.8,22.8,03.2,-001.4,0009.63,0005.07,0004.29
2022-12-22 07:33:00,,0824.5,5.03,0.00,21.3,22.0,00.0,29.8,23.0,03.2,-001.1,0009.57,0005.06,0004.31
2022-12-22 07:34:00,,0824.7,4.98,0.00,21.4,21.9,00.0,29.9,23.0,03.2,-001.0,0009.59,0005.08,0004.34
2022-12-22 07:35:00,,0824.7,5.01,0.00,21.2,20.5,00.0,30.0,22.5,03.2,-001.3,0009.59,0005.10,0004.36
2022-12-22 07:36:00,,0824.6,4.98,0.00,21.0,19.1,00.0,30.0,22.1,03.2,-000.7,0009.77,0005.19,0004.40
2022-12-22 07:37:00,,0824.4,5.02,0.00,20.9,19.1,00.0,29.9,22.0,03.3,-000.2,0009.91,0005.25,0004.42
2022-12-22 07:38:00,,0824.4,5.02,0.00,21.0,20.0,00.0,29.8,22.3,03.3,0000.4,0009.91,0005.28,0004.43
2022-12-22 07:39:00,,0824.4,5.00,0.00,21.1,20.7,00.0,29.8,22.5,03.3,0001.0,0009.44,0005.25,0004.43
2022-12-22 07:40:00,,0824.5,5.01,0.00,21.1,21.2,00.0,29.8,22.7,03.3,0001.3,0009.43,0005.26,0004.44
2022-12-22 07:41:00,,0824.7,4.99,0.00,21.2,21.7,00.0,29.8,22.9,03.2,0001.9,0009.56,0005.28,0004.43
2022-12-22 07:42:00,,0824.8,5.02,0.00,21.3,22.0,00.0,29.8,23.0,03.2,0002.5,0009.49,0005.24,0004.41
2022-12-22 07:43:00,,0824.8,4.97,0.00,21.4,21.9,00.0,29.9,23.0,03.2,0002.9,0009.20,0005.21,0004.41
2022-12-22 07:44:00,,0824.9,5.03,0.00,21.3,20.7,00.0,30.0,22.6,03.2,0003.2,0009.20,0005.21,0004.39
2022-12-22 07:45:00,,0824.9,5.00,0.00,21.1,19.4,00.0,30.0,22.1,03.2,0003.6,0009.41,0005.18,0004.37
2022-12-22 07:46:00,,0825.0,4.97,0.00,20.9,19.3,00.0,29.9,22.0,03.3,0004.0,0009.97,0005.21,0004.35
2022-12-22 07:47:00,,0825.0,5.01,0.00,21.0,20.2,00.0,29.9,22.4,03.2,0004.4,0010.09,0005.19,0004.33
2022-12-22 07:48:00,,0824.9,5.02,0.00,21.1,20.9,00.0,29.8,22.6,03.2,0004.1,0010.47,0005.16,0004.31
2022-12-22 07:49:00,,0824.7,4.98,0.00,21.2,21.4,00.0,29.8,22.8,03.2,0003.9,0010.74,0005.16,0004.31
2022-12-22 07:50:00,,0824.6,5.00,0.00,21.3,21.7,00.0,29.9,22.9,03.2,0003.1,0010.88,0005.21,0004.30
2022-12-22 07:51:00,,0824.7,5.00,0.00,21.3,22.0,00.0,29.9,23.0,03.2,0002.4,0010.89,0005.22,0004.30
2022-12-22 07:52:00,,0824.6,4.98,0.00,21.4,21.9,00.0,29.9,23.1,03.2,0002.1,0010.82,0005.20,0004.30
2022-12-22 07:53:00,,0824.7,5.01,0.00,21.3,20.7,00.0,30.0,22.7,03.1,0001.6,0010.84,0005.20,0004.31
2022-12-22 07:54:00,,0824.7,5.03,0.00,21.1,19.3,00.0,30.0,22.2,03.2,0001.7,0010.91,0005.19,0004.30
2022-12-22 07:55:00,,0824.8,5.00,0.00,20.9,19.0,00.0,29.9,22.0,03.2,0002.0,0010.93,0005.18,0004.31
2022-12-22 07:56:00,,0824.8,4.96,0.00,21.0,19.9,00.0,29.9,22.3,03.2,0001.3,0011.03,0005.22,0004.30
2022-12-22 07:57:00,,0824.7,5.03,0.00,21.1,20.6,00.0,29.8,22.5,03.2,0001.7,0010.62,0005.19,0004.29
2022-12-22 07:58:00,,0824.6,4.98,0.00,21.1,21.1,00.0,29.8,22.7,03.2,0001.6,0010.41,0005.12,0004.25
2022-12-22 07:59:00,,0824.8,5.02,0.00,21.2,21.5,00.0,29.8,22.8,03.1,0001.9,0010.03,0005.05,0004.21
